Regional Weather Roundup
Issued by NWS

Home | Current Version | Previous Version | Graphics & Text | Print | Product List | Glossary On
Versions: 1 2 3 4 5 6 7 8 9 10 11 12 13 14 15 16 17 18 19 20 21 22 23 24 25 26 27 28 29 30 31 32 33 34 35 36 37 38 39 40 41 42 43 44 45 46 47 48 49 50
056
ASUS43 KDMX 221606
RWRIA

WEATHER ROUNDUP FOR IOWA
NATIONAL WEATHER SERVICE DES MOINES IA
1000 AM CST SUN JAN 22 2017

NOTE: "FAIR" INDICATES FEW OR NO CLOUDS BELOW 12,000 FEET WITH NO
SIGNIFICANT WEATHER AND/OR OBSTRUCTIONS TO VISIBILITY.

* - THESE STATIONS ARE NOT NWS STATIONS...THUS NOT UNDER NWS
QUALITY CONTROL.  THEY ALSO DO NOT REPORT WEATHER SUCH
AS PRECIPITATION OR FOG.

IAZ001>003-012>014-020>022-031>034-043>046-221700-
   NORTHWEST IOWA

CITY           SKY/WX    TMP DP  RH WIND       PRES   REMARKS
CARROLL *      CLOUDY    34  34 100 NW14      29.73R FOG     WCI  24
CHEROKEE *     LGT RAIN  34  33  98 NW6       29.75R WCI  29
DENISON *      CLOUDY    34  32  93 NW9       29.73R FOG     WCI  26
LE MARS *      LGT SNOW  34  32  93 NW7       29.78R WCI  28
ORANGE CITY *  LGT RAIN  34  34 100 NW8       29.76R WCI  27
SHELDON *      CLOUDY    34  34 100 NW8       29.74R FOG     WCI  27
SIOUX CITY     CLOUDY    35  31  85 NW14      29.77R WCI  26
SPENCER          N/A    N/A N/A N/A MISG      29.73R
STORM LAKE *   LGT RAIN  32  32 100 NW10      29.73R WCI  24
$$

IAZ055>058-069>071-079>083-090>094-221700-
   SOUTHWEST IOWA

CITY           SKY/WX    TMP DP  RH WIND       PRES   REMARKS
ATLANTIC *     CLOUDY    34  34 100 N8        29.75R WCI  27
AUDUBON *      CLOUDY    34  30  86 NW8       29.74R FOG     WCI  27
CLARINDA *     CLOUDY    32  32 100 N10       29.76R WCI  24
COUNCIL BLFS * PTSUNNY   32  32 100 NW10      29.76R WCI  24
CRESTON *      CLOUDY    32  32 100 N9        29.73R WCI  24
HARLAN  *      CLOUDY    34  34 100 NW13      29.78R WCI  25
LAMONI         CLOUDY    32  31  96 N10       29.70R WCI  24
RED OAK *      CLOUDY    34  32  93 NW8       29.76R WCI  27
SHENANDOAH *   CLOUDY    32  32 100 N8        29.77R FOG     WCI  25
$$

IAZ047>049-059>061-072>074-084-221700-
   CENTRAL IOWA

CITY           SKY/WX    TMP DP  RH WIND       PRES   REMARKS
AMES           CLOUDY    34  34 100 NW12      29.72R FOG     WCI  25
ANKENY *       CLOUDY    34  34 100 NW9       29.73R FOG     WCI  26
BOONE *        CLOUDY    34  34 100 NW9       29.71R FOG     WCI  26
CHARITON *     CLOUDY    32  32 100 NW8       29.71R FOG     WCI  25
DES MOINES     CLOUDY    35  33  92 NW9       29.72R FOG     WCI  28
GRINNELL*      CLOUDY    32  32  99 W7        29.70R WCI  26
KNOXVILLE *    CLOUDY    32  32 100 NW8       29.70R FOG     WCI  25
MARSHALLTOWN   CLOUDY    33  33 100 NW8       29.69R FOG     WCI  26
NEWTON *       CLOUDY    34  32  93 W6        29.70R FOG     WCI  29
PELLA *        CLOUDY    33  32  97 W7        29.73R FOG     WCI  27
PERRY *        CLOUDY    34  33  96 NW6       29.73R FOG     WCI  29
$$

IAZ004>006-015-016-023>025-035-036-221700-
   NORTH CENTRAL IOWA

CITY           SKY/WX    TMP DP  RH WIND       PRES   REMARKS
ALGONA *       FOG       34  34 100 NW7       29.72R VSB 1/4 WCI  28
CLARION *      FOG       34  34 100 NW8       29.71R VSB<1/4 WCI  27
ESTHERVILLE    CLOUDY    33  33 100 NW9       29.72R FOG     WCI  25
FORT DODGE *   CLOUDY    34  30  86 NW3       29.73R
MASON CITY     FOG       33  33 100 NW9       29.71R VSB 1   WCI  25
FOREST CITY *  CLOUDY    34  34 100 NW6       29.71R FOG     WCI  29
WEBSTER CITY * FOG       34 N/A N/A NW10      29.70R VSB 1/4 WCI  26
IOWA FALLS *   CLOUDY    34  33  98 NW6       29.70R FOG     WCI  29
$$

IAZ007>011-017>019-026>030-037>042-050>054-066-221700-
   NORTHEAST IOWA

CITY           SKY/WX    TMP DP  RH WIND       PRES   REMARKS
CEDAR RAPIDS   CLOUDY    32  32 100 NW10      29.68R FOG     WCI  24
CHARLES CITY * CLOUDY    34  34 100 NW7       29.69R FOG     WCI  28
CLINTON *      CLOUDY    32  31  96 CALM      29.68R FOG
DECORAH *      CLOUDY    34  34 100 CALM      29.66R FOG
DUBUQUE        CLOUDY    35  34  96 CALM      29.67R FOG
MONTICELLO *   FOG       34  34 100 CALM      29.68R VSB 1/2
OELWEIN *      CLOUDY    32  32 100 NW7       29.69R FOG     WCI  26
WATERLOO       CLOUDY    33  31  92 N8        29.69R WCI  26
$$

IAZ064-065-067-068-078-221700-
   EAST CENTRAL IOWA

CITY           SKY/WX    TMP DP  RH WIND       PRES   REMARKS
DAVENPORT      CLOUDY    32  31  96 CALM      29.68R
IOWA CITY      CLOUDY    36  34  92 NW8       29.71R FOG     WCI  30
MUSCATINE *    CLOUDY    34  34 100 CALM      29.70R FOG
QUAD CITIES    CLOUDY    36  34  92 W3        29.67R FOG
$$

IAZ062-063-075>077-085>089-095>099-221700-
   SOUTHEAST IOWA

CITY           SKY/WX    TMP DP  RH WIND       PRES   REMARKS
BURLINGTON     CLOUDY    39  39 100 N7        29.66R FOG     WCI  34
FAIRFIELD *    FOG       34  34 100 NW8       29.69R VSB<1/4 WCI  27
FORT MADISON * CLOUDY    39  37  93 N5        29.67R FOG
KEOKUK *       CLOUDY    39 N/A N/A N5        29.66R FOG
OSKALOOSA *    CLOUDY    32  32 100 N5        29.71R WCI  27
CENTERVILLE *  CLOUDY    32  32 100 N12       29.72R FOG     WCI  23
OTTUMWA        CLOUDY    33  30  88 NW12      29.70R FOG     WCI  24
WASHINGTON *   FOG       34  34 100 NW8       29.70R VSB 1   WCI  27
$$

ABBREVIATIONS USED IN REMARKS
   TC - TEMPERATURES IN CELSIUS
  WCI - WIND CHILL INDEX
   HX - HEAT INDEX
  VSB - VISIBILITY
$$





USA.gov is the U.S. government's official web portal to all federal, state and local government web resources and services.